Flag for Germany Weather past 2 weeks in Göppingen, Baden-Württemberg, Germany

Now
41 °F

Fog.


Feels Like: 41 °F
Forecast: 36 / 54 °F
Wind: 2 mph from Northwest

Location: Stoetten

Current Time: Oct 24, 2014 at 12:09:13 AM

Latest Report: Oct 23, 2014 at 11:00 PM


Visibility: 2 mi

Pressure: 30.30 "Hg

Humidity: 98%

Dew point: 41 °F

Location of GöppingenLocation

Historic Weather in Göppingen — Graph

°F

Göppingen temperature yesterday

Maximum temperature yesterday: 44 °F (at 4:00 PM)
Minimum temperature yesterday: 39 °F (at 5:00 AM)
Average temperature yesterday: 40 °F

Past Weeks' High & Low Weather Summary

 TemperatureHumidityPressure
High74 °F (Oct 9, 3:00 PM)100% (Oct 11, 4:00 AM)30.29 "Hg (Oct 11, 4:00 AM)
Low36 °F (Oct 22, 2:00 PM)41% (Oct 9, 3:00 PM)29.62 "Hg (Oct 21, 8:00 PM)
Average54 °F87%29.96 "Hg
* Reported Midnight between Oct 8 and Oct 9 — Oct 23 10:00 PM, Göppingen, Weather by CustomWeather, © 2014

Note: Actual official high and low records may vary slightly from our data, if they occured in-between our weather recording intervals... More about our weather records

Advertising

Göppingen weather history for previous 24 hours

 ConditionsComfort  
Time TempWeatherWind HumidityBarometerVisibility
10:00 PM
Oct 23
40 °FFog.3 mph98%30.29 "Hg2 mi
9:00 PM41 °FPassing clouds.3 mph97%30.28 "Hg19 mi
8:00 PM41 °FPassing clouds.5 mph93%30.28 "Hg19 mi
7:00 PM42 °FPassing clouds.3 mph91%30.28 "Hg19 mi
6:00 PM43 °FOvercast.5 mph88%30.27 "Hg28 mi
5:00 PM43 °FOvercast.5 mph85%30.27 "Hg37 mi
4:00 PM44 °FOvercast.6 mph83%30.25 "Hg25 mi
3:00 PM43 °FOvercast.8 mph82%30.26 "Hg28 mi
2:00 PM43 °FOvercast.8 mph84%30.26 "Hg28 mi
1:00 PM42 °FPartly sunny.8 mph87%30.27 "Hg16 mi
12:00 PM41 °FLight rain. Low clouds.9 mph98%30.27 "Hg2 mi
11:00 AM40 °FFog.7 mph99%30.27 "Hg1 mi
10:00 AM39 °FLow clouds.8 mph99%30.27 "Hg1 mi
9:00 AM39 °FLow clouds.9 mph99%30.25 "Hg1 mi
8:00 AM39 °FLight rain. Low clouds.9 mph99%30.23 "Hg2 mi
7:00 AM39 °FLight rain. Low clouds.9 mph99%30.22 "Hg3 mi
6:00 AM39 °FLight rain. Dense fog.8 mph100%30.21 "Hg0 mi
5:00 AM39 °FLight rain. Low clouds.10 mph99%30.18 "Hg1 mi
4:00 AM39 °FLight rain. Low clouds.8 mph100%30.17 "Hg1 mi
3:00 AM39 °FLight rain. Low clouds.8 mph100%30.16 "Hg1 mi
2:00 AM39 °FLight freezing rain. Low clouds.9 mph100%30.13 "Hg1 mi
1:00 AM39 °FDrizzle. Low clouds.10 mph99%30.12 "Hg1 mi
12:00 AM39 °FDrizzle. Low clouds.14 mph99%30.11 "Hg2 mi
Weather by CustomWeather, © 2014

See weather overviewHow to use our weather pages